Weather History for Washington, MO

Change the Weather History Date:

Sunday, November 25, 2012

  Actual Average (KSTL) Record (KSTL)
Temperature  
Mean Temperature 42 °F 42 °F  
Max Temperature 55 °F 51 °F 74 °F (1990)
Min Temperature 28 °F 34 °F 4 °F (1950)
Degree Days  
Heating Degree Days 24 23  
Month to date heating degree days 428  
Since 1 July heating degree days 704  
Cooling Degree Days 0 0  
Month to date cooling degree days 0  
Year to date cooling degree days 1642  
Moisture  
Dew Point 25 °F    
Average Humidity 49    
Maximum Humidity 80    
Minimum Humidity 33    
Precipitation  
Precipitation 0.00 in 0.13 in 1.06 in (1996)
Month to date precipitation 3.26  
Year to date precipitation 37.47  
Snow  
Snow - 0.10 in 1.50 in (1903)
Month to date snowfall 0.5  
Since 1 July snowfall 0.5  
Since 1 September snowfall 0.5  
Snow Depth -    
Sea Level Pressure  
Sea Level Pressure 29.96 in    
Wind  
Wind Speed 2 mph ()    
Max Wind Speed 10 mph    
Max Gust Speed 16 mph    
Visibility 10.0 miles    
Events      
T = Trace of Precipitation, MM = Missing Value Source: Averaged Metar Reports

Daily Weather History Graph

Daily Weather History Graph

Search for Another Location

Airport:

Trip Planner

Search our weather history database for the weather conditions in past years. The results will help you decide how hot, cold, wet, or windy it might be!

Date:

Astronomy

Nov. 25, 2012 Rise Set
Actual Time 6:57 AM CST 4:44 PM CST
Civil Twilight 6:28 AM CST 5:13 PM CST
Nautical Twilight 5:55 AM CST 5:46 PM CST
Astronomical Twilight 5:23 AM CST 6:18 PM CST
Moon 3:00 PM CST (11/25) 4:12 AM CST (11/25)
Length of Visible Light 10h 45m
Length of Day
9h 47m
Waxing Gibbous, 93% of the Moon is Illuminated
Nov 25
Waxing Gibbous
Nov 28
Full
Dec 6
Last Quarter
Dec 13
New
Dec 19
First Quarter

Hourly Weather History & Observations

Time (CST) Temp. Windchill Dew Point Humidity Pressure Visibility Wind Dir Wind Speed Gust Speed Precip Events Conditions
12:15 AM 37.4 °F - 19.4 °F 48% 30.01 in 10.0 mi Calm Calm - N/A   Scattered Clouds
12:35 AM 37.4 °F 32.1 °F 19.4 °F 48% 30.00 in 10.0 mi SE 6.9 mph - N/A   Mostly Cloudy
12:55 AM 37.4 °F 32.1 °F 19.4 °F 48% 29.99 in 10.0 mi SE 6.9 mph - N/A   Mostly Cloudy
1:15 AM 37.4 °F 32.8 °F 19.4 °F 48% 29.99 in 10.0 mi SE 5.8 mph - N/A   Scattered Clouds
1:35 AM 37.4 °F 32.8 °F 19.4 °F 48% 29.98 in 10.0 mi SE 5.8 mph - N/A   Clear
1:55 AM 37.4 °F - 19.4 °F 48% 29.98 in 10.0 mi Calm Calm - N/A   Clear
2:15 AM 39.2 °F - 19.4 °F 45% 29.97 in 10.0 mi Calm Calm - N/A   Clear
2:35 AM 37.4 °F 32.8 °F 19.4 °F 48% 29.97 in 10.0 mi SE 5.8 mph - N/A   Clear
2:55 AM 39.2 °F - 19.4 °F 45% 29.97 in 10.0 mi Calm Calm - N/A   Clear
3:15 AM 39.2 °F - 19.4 °F 45% 29.96 in 10.0 mi Calm Calm - N/A   Clear
3:35 AM 39.2 °F - 19.4 °F 45% 29.95 in 10.0 mi Calm Calm - N/A   Clear
3:55 AM 37.4 °F - 19.4 °F 48% 29.95 in 10.0 mi Calm Calm - N/A   Clear
4:15 AM 37.4 °F - 19.4 °F 48% 29.94 in 10.0 mi Calm Calm - N/A   Clear
4:35 AM 37.4 °F - 19.4 °F 48% 29.94 in 10.0 mi Calm Calm - N/A   Clear
4:55 AM 35.6 °F - 21.2 °F 56% 29.94 in 10.0 mi Calm Calm - N/A   Clear
5:15 AM 32.0 °F - 23.0 °F 69% 29.94 in 10.0 mi Calm Calm - N/A   Clear
5:35 AM 35.6 °F - 23.0 °F 60% 29.94 in 10.0 mi Calm Calm - N/A   Clear
5:55 AM 32.0 °F - 23.0 °F 69% 29.94 in 10.0 mi Calm Calm - N/A   Clear
6:15 AM 37.4 °F - 21.2 °F 52% 29.94 in 10.0 mi Calm Calm - N/A   Partly Cloudy
6:35 AM 37.4 °F - 23.0 °F 56% 29.95 in 10.0 mi Calm Calm - N/A   Clear
6:55 AM 35.6 °F - 23.0 °F 60% 29.95 in 10.0 mi Calm Calm - N/A   Clear
7:15 AM 30.2 °F - 23.0 °F 75% 29.95 in 10.0 mi Calm Calm - N/A   Clear
7:35 AM 28.4 °F - 23.0 °F 80% 29.96 in 10.0 mi Calm Calm - N/A   Clear
7:55 AM 35.6 °F - 23.0 °F 60% 29.96 in 10.0 mi Calm Calm - N/A   Clear
8:15 AM 37.4 °F - 26.6 °F 65% 29.97 in 10.0 mi Calm Calm - N/A   Clear
8:35 AM 39.2 °F - 24.8 °F 56% 29.97 in 10.0 mi Calm Calm - N/A   Clear
8:55 AM 41.0 °F - 24.8 °F 53% 29.97 in 10.0 mi Calm Calm - N/A   Clear
9:15 AM 42.8 °F - 24.8 °F 49% 29.97 in 10.0 mi Calm Calm - N/A   Clear
9:35 AM 44.6 °F - 24.8 °F 46% 29.97 in 10.0 mi Calm Calm - N/A   Clear
9:55 AM 46.4 °F 44.3 °F 26.6 °F 46% 29.97 in 10.0 mi West 4.6 mph - N/A   Clear
10:15 AM 48.2 °F - 24.8 °F 40% 29.96 in 10.0 mi West 4.6 mph - N/A   Clear
10:35 AM 50.0 °F - 24.8 °F 37% 29.95 in 10.0 mi West 8.1 mph 16.1 mph N/A   Clear
10:55 AM 50.0 °F - 26.6 °F 40% 29.95 in 10.0 mi NW 8.1 mph - N/A   Clear
11:15 AM 50.0 °F - 26.6 °F 40% 29.94 in 10.0 mi WNW 10.4 mph - N/A   Clear
11:35 AM 51.8 °F - 26.6 °F 38% 29.93 in 10.0 mi WNW 8.1 mph - N/A   Clear
11:55 AM 53.6 °F - 26.6 °F 35% 29.92 in 10.0 mi West 4.6 mph - N/A   Clear
12:15 PM 53.6 °F - 26.6 °F 35% 29.92 in 10.0 mi NW 9.2 mph - N/A   Clear
12:35 PM 53.6 °F - 26.6 °F 35% 29.92 in 10.0 mi NW 9.2 mph - N/A   Clear
12:55 PM 53.6 °F - 26.6 °F 35% 29.92 in 10.0 mi North 5.8 mph - N/A   Clear
1:15 PM 53.6 °F - 26.6 °F 35% 29.92 in 10.0 mi NNW 8.1 mph - N/A   Clear
1:35 PM 55.4 °F - 26.6 °F 33% 29.91 in 10.0 mi NW 6.9 mph - N/A   Clear
1:55 PM 55.4 °F - 26.6 °F 33% 29.91 in 10.0 mi WNW 4.6 mph - N/A   Clear
2:15 PM 55.4 °F - 28.4 °F 36% 29.91 in 10.0 mi WNW 4.6 mph - N/A   Clear
2:35 PM 55.4 °F - 28.4 °F 36% 29.90 in 10.0 mi WNW 6.9 mph - N/A   Clear
2:55 PM 55.4 °F - 28.4 °F 36% 29.90 in 10.0 mi Calm Calm - N/A   Clear
3:15 PM 55.4 °F - 28.4 °F 36% 29.91 in 10.0 mi Calm Calm - N/A   Clear
3:35 PM 55.4 °F - 28.4 °F 36% 29.91 in 10.0 mi Calm Calm - N/A   Clear
3:55 PM 55.4 °F - 28.4 °F 36% 29.92 in 10.0 mi Calm Calm - N/A   Clear
4:15 PM 53.6 °F - 28.4 °F 38% 29.93 in 10.0 mi Calm Calm - N/A   Clear
4:35 PM 53.6 °F - 28.4 °F 38% 29.93 in 10.0 mi Calm Calm - N/A   Clear
4:55 PM 50.0 °F - 28.4 °F 43% 29.93 in 10.0 mi Calm Calm - N/A   Clear
5:15 PM 50.0 °F - 28.4 °F 43% 29.93 in 10.0 mi Calm Calm - N/A   Clear
5:35 PM 50.0 °F - 26.6 °F 40% 29.94 in 10.0 mi NNE 5.8 mph - N/A   Clear
5:55 PM 50.0 °F - 28.4 °F 43% 29.95 in 10.0 mi Calm Calm - N/A   Scattered Clouds
6:15 PM 46.4 °F - 30.2 °F 53% 29.96 in 10.0 mi Calm Calm - N/A   Mostly Cloudy
6:35 PM 41.0 °F - 28.4 °F 61% 29.96 in 10.0 mi Calm Calm - N/A   Overcast
6:55 PM 44.6 °F 43.1 °F 28.4 °F 53% 29.97 in 10.0 mi NNE 3.5 mph - N/A   Mostly Cloudy
7:15 PM 48.2 °F - 28.4 °F 46% 29.97 in 10.0 mi NNE 6.9 mph - N/A   Mostly Cloudy
7:35 PM 46.4 °F 43.5 °F 28.4 °F 50% 29.98 in 10.0 mi North 5.8 mph - N/A   Partly Cloudy
7:55 PM 46.4 °F 42.9 °F 28.4 °F 50% 29.98 in 10.0 mi NNE 6.9 mph - N/A   Clear
8:15 PM 46.4 °F 42.9 °F 28.4 °F 50% 29.99 in 10.0 mi North 6.9 mph - N/A   Clear
8:35 PM 46.4 °F - 28.4 °F 50% 30.00 in 10.0 mi Calm Calm - N/A   Clear
8:55 PM 44.6 °F - 28.4 °F 53% 30.01 in 10.0 mi Calm Calm - N/A   Clear
9:15 PM 44.6 °F - 30.2 °F 57% 30.02 in 10.0 mi Calm Calm - N/A   Clear
9:35 PM 44.6 °F - 30.2 °F 57% 30.02 in 10.0 mi Calm Calm - N/A   Clear
9:55 PM 42.8 °F - 28.4 °F 57% 30.02 in 10.0 mi Calm Calm - N/A   Clear
10:15 PM 42.8 °F 39.3 °F 28.4 °F 57% 30.03 in 10.0 mi NE 5.8 mph - N/A   Clear
10:35 PM 41.0 °F - 28.4 °F 61% 30.04 in 10.0 mi Calm Calm - N/A   Clear
10:55 PM 41.0 °F - 28.4 °F 61% 30.05 in 10.0 mi Calm Calm - N/A   Clear
11:15 PM 39.2 °F - 28.4 °F 65% 30.05 in 10.0 mi Calm Calm - N/A   Clear
11:35 PM 39.2 °F - 28.4 °F 65% 30.05 in 10.0 mi Calm Calm - N/A   Clear
11:55 PM 39.2 °F - 28.4 °F 65% 30.05 in 10.0 mi Calm Calm - N/A   Clear